| time (UTC) | temp C | wind direction | speed KPH | gust KPH | rain 1hr cm | rain 24hr cm | rain mn cm | humidity % | barometer mb |
| 20260504173635 | 12 | 342 | 16.1 | 20.9 | 0.00 | 0.00 | 0.00 | 43 | 1017.3 |
| 20260504173132 | 12 | 288 | 16.1 | 20.9 | 0.00 | 0.00 | 0.00 | 42 | 1017.0 |
| 20260504172628 | 13 | 307 | 25.7 | 29.0 | 0.00 | 0.00 | 0.00 | 40 | 1017.3 |
| 20260504172125 | 11 | 14 | 20.9 | 25.7 | 0.00 | 0.00 | 0.00 | 42 | 1017.2 |
| 20260504171622 | 11 | 300 | 29.0 | 35.4 | 0.00 | 0.00 | 0.00 | 43 | 1017.0 |
| 20260504171119 | 12 | 303 | 22.5 | 33.8 | 0.00 | 0.00 | 0.00 | 44 | 1017.2 |
| 20260504170615 | 12 | 291 | 20.9 | 27.4 | 0.00 | 0.00 | 0.00 | 45 | 1017.0 |
| 20260504170113 | 11 | 304 | 14.5 | 17.7 | 0.00 | 0.00 | 0.00 | 47 | 1017.0 |
| 20260504150958 | 9 | 266 | 20.9 | 22.5 | 0.00 | 0.00 | 0.00 | 57 | 1017.6 |
| 20260504150455 | 9 | 275 | 17.7 | 20.9 | 0.00 | 0.00 | 0.00 | 58 | 1017.7 |
| 20260504140922 | 8 | 262 | 17.7 | 20.9 | 0.00 | 0.00 | 0.00 | 63 | 1017.7 |
| 20260504140418 | 8 | 271 | 16.1 | 17.7 | 0.00 | 0.00 | 0.00 | 63 | 1017.6 |
| 20260504130343 | 7 | 277 | 11.3 | 12.9 | 0.00 | 0.00 | 0.00 | 66 | 1017.6 |
| 20260504120301 | 6 | 271 | 9.7 | 11.3 | 0.00 | 0.00 | 0.00 | 65 | 1017.6 |
| 20260504110224 | 6 | 283 | 6.4 | 6.4 | 0.00 | 0.00 | 0.00 | 66 | 1017.9 |
| 20260504100142 | 7 | 2 | 11.3 | 12.9 | 0.00 | 0.00 | 0.00 | 61 | 1018.2 |
| 20260504090105 | 8 | 5 | 8.0 | 11.3 | 0.00 | 0.00 | 0.00 | 57 | 1017.7 |
| 20260504081535 | 10 | 352 | 17.7 | 20.9 | 0.00 | 0.00 | 0.00 | 51 | 1017.2 |
| 20260504081031 | 10 | 12 | 16.1 | 17.7 | 0.00 | 0.00 | 0.00 | 51 | 1017.0 |
| 20260504080528 | 10 | 7 | 16.1 | 17.7 | 0.00 | 0.00 | 0.00 | 51 | 1016.8 |
| 20260504050347 | 12 | 33 | 14.5 | 16.1 | 0.00 | 0.00 | 0.00 | 43 | 1011.7 |
| 20260504045844 | 12 | 3 | 11.3 | 14.5 | 0.00 | 0.00 | 0.00 | 43 | 1011.7 |
| 20260504045343 | 12 | 37 | 6.4 | 9.7 | 0.00 | 0.00 | 0.00 | 43 | 1011.4 |
| 20260504044841 | 13 | 24 | 6.4 | 9.7 | 0.00 | 0.00 | 0.00 | 42 | 1011.4 |
| 20260504044338 | 13 | 41 | 6.4 | 11.3 | 0.00 | 0.00 | 0.00 | 42 | 1011.3 |
| 20260504043836 | 13 | 14 | 8.0 | 9.7 | 0.00 | 0.00 | 0.00 | 42 | 1011.2 |
| 20260504043332 | 13 | 9 | 8.0 | 11.3 | 0.00 | 0.00 | 0.00 | 42 | 1010.9 |
| 20260504042829 | 13 | 39 | 8.0 | 9.7 | 0.00 | 0.00 | 0.00 | 41 | 1011.0 |
| 20260504042325 | 13 | 37 | 9.7 | 11.3 | 0.00 | 0.00 | 0.00 | 40 | 1010.8 |
| 20260504041822 | 13 | 26 | 9.7 | 11.3 | 0.00 | 0.00 | 0.00 | 40 | 1010.6 |
| 20260504041318 | 14 | 18 | 8.0 | 9.7 | 0.00 | 0.00 | 0.00 | 39 | 1010.6 |
| 20260504040814 | 15 | 13 | 9.7 | 11.3 | 0.00 | 0.00 | 0.00 | 39 | 1010.6 |
| 20260504040313 | 15 | 358 | 16.1 | 24.1 | 0.00 | 0.00 | 0.00 | 38 | 1010.6 |
| 20260504035808 | 15 | 16 | 12.9 | 17.7 | 0.00 | 0.15 | 0.15 | 38 | 1010.4 |
| 20260504035305 | 15 | 3 | 14.5 | 17.7 | 0.00 | 0.15 | 0.15 | 37 | 1010.2 |
| 20260504034803 | 15 | 30 | 9.7 | 11.3 | 0.00 | 0.15 | 0.15 | 37 | 1010.0 |
| 20260504034300 | 15 | 55 | 14.5 | 16.1 | 0.00 | 0.15 | 0.15 | 36 | 1009.8 |
| 20260504033757 | 16 | 58 | 11.3 | 17.7 | 0.00 | 0.15 | 0.15 | 35 | 1009.8 |
| 20260504033255 | 16 | 31 | 12.9 | 16.1 | 0.00 | 0.15 | 0.15 | 34 | 1009.6 |
| 20260504032751 | 15 | 33 | 8.0 | 9.7 | 0.00 | 0.15 | 0.15 | 34 | 1009.5 |
| 20260504032248 | 15 | 32 | 8.0 | 9.7 | 0.00 | 0.15 | 0.15 | 33 | 1009.6 |
| 20260504031745 | 15 | 17 | 8.0 | 9.7 | 0.00 | 0.15 | 0.15 | 32 | 1009.5 |
| 20260504031243 | 16 | 18 | 11.3 | 12.9 | 0.00 | 0.15 | 0.15 | 31 | 1009.3 |
| 20260504030738 | 17 | 348 | 11.3 | 11.3 | 0.00 | 0.15 | 0.15 | 29 | 1009.1 |
| 20260504030236 | 17 | 0 | 8.0 | 11.3 | 0.00 | 0.15 | 0.15 | 28 | 1009.2 |
| 20260504025732 | 17 | 356 | 8.0 | 9.7 | 0.00 | 0.15 | 0.15 | 29 | 1009.1 |
| 20260504025229 | 17 | 358 | 8.0 | 9.7 | 0.00 | 0.15 | 0.15 | 28 | 1009.1 |
| 20260504024726 | 17 | 357 | 6.4 | 6.4 | 0.00 | 0.15 | 0.15 | 29 | 1009.1 |
| 20260504024222 | 17 | 4 | 8.0 | 9.7 | 0.00 | 0.15 | 0.15 | 28 | 1009.1 |
| 20260504023719 | 17 | 359 | 9.7 | 11.3 | 0.00 | 0.15 | 0.15 | 29 | 1009.1 |
| 20260504023215 | 16 | 2 | 8.0 | 9.7 | 0.00 | 0.15 | 0.15 | 30 | 1008.9 |
| 20260504022712 | 17 | 353 | 4.8 | 4.8 | 0.00 | 0.15 | 0.15 | 29 | 1009.1 |
| 20260504022208 | 18 | 2 | 8.0 | 9.7 | 0.00 | 0.15 | 0.15 | 28 | 1008.9 |
| 20260504021706 | 18 | 351 | 4.8 | 6.4 | 0.00 | 0.15 | 0.15 | 28 | 1009.0 |
| 20260504021202 | 19 | 5 | 9.7 | 11.3 | 0.00 | 0.15 | 0.15 | 27 | 1009.1 |
| 20260504020659 | 20 | 6 | 9.7 | 11.3 | 0.00 | 0.15 | 0.15 | 26 | 1008.9 |
| 20260504020155 | 20 | 7 | 12.9 | 14.5 | 0.00 | 0.15 | 0.15 | 26 | 1009.0 |
| 20260504015652 | 20 | 356 | 12.9 | 14.5 | 0.00 | 0.15 | 0.15 | 26 | 1009.0 |
| 20260504015148 | 21 | 359 | 14.5 | 16.1 | 0.00 | 0.15 | 0.15 | 25 | 1008.8 |
| 20260504014644 | 21 | 7 | 14.5 | 14.5 | 0.00 | 0.15 | 0.15 | 25 | 1008.8 |
| 20260504014142 | 21 | 17 | 16.1 | 17.7 | 0.00 | 0.15 | 0.15 | 24 | 1008.8 |
| 20260504013639 | 21 | 358 | 9.7 | 11.3 | 0.00 | 0.15 | 0.15 | 25 | 1008.8 |
| 20260504013136 | 21 | 27 | 6.4 | 6.4 | 0.00 | 0.15 | 0.15 | 25 | 1008.9 |
| 20260504012633 | 22 | 0 | 12.9 | 14.5 | 0.00 | 0.15 | 0.15 | 24 | 1008.8 |
| 20260504012131 | 22 | 6 | 12.9 | 14.5 | 0.00 | 0.15 | 0.15 | 23 | 1008.8 |
| 20260504011627 | 22 | 11 | 16.1 | 17.7 | 0.00 | 0.15 | 0.15 | 23 | 1008.9 |
| 20260504011124 | 22 | 346 | 17.7 | 17.7 | 0.00 | 0.15 | 0.15 | 23 | 1008.9 |
| 20260504010620 | 23 | 6 | 14.5 | 14.5 | 0.00 | 0.15 | 0.15 | 22 | 1009.0 |
| 20260504010116 | 23 | 0 | 12.9 | 14.5 | 0.00 | 0.15 | 0.15 | 22 | 1009.1 |
| 20260504005613 | 23 | 326 | 11.3 | 16.1 | 0.00 | 0.15 | 0.15 | 22 | 1008.9 |
| 20260504005110 | 23 | 300 | 14.5 | 17.7 | 0.00 | 0.15 | 0.15 | 22 | 1009.2 |
| 20260504004608 | 23 | 305 | 11.3 | 14.5 | 0.00 | 0.15 | 0.15 | 22 | 1009.0 |
| 20260504004105 | 23 | 355 | 14.5 | 17.7 | 0.00 | 0.15 | 0.15 | 21 | 1009.1 |
| 20260504003601 | 23 | 333 | 9.7 | 11.3 | 0.00 | 0.15 | 0.15 | 22 | 1009.2 |
| 20260504003058 | 23 | 305 | 20.9 | 24.1 | 0.00 | 0.15 | 0.15 | 21 | 1009.5 |
| 20260504002555 | 23 | 315 | 14.5 | 16.1 | 0.00 | 0.15 | 0.15 | 22 | 1009.3 |
| 20260504002052 | 23 | 313 | 11.3 | 16.1 | 0.00 | 0.15 | 0.15 | 21 | 1009.3 |
| 20260504001550 | 23 | 301 | 12.9 | 14.5 | 0.00 | 0.15 | 0.15 | 22 | 1009.3 |
| 20260504001045 | 23 | 335 | 14.5 | 17.7 | 0.00 | 0.15 | 0.15 | 22 | 1009.5 |
| 20260504000543 | 23 | 334 | 16.1 | 16.1 | 0.00 | 0.15 | 0.15 | 21 | 1009.7 |
| 20260504000040 | 23 | 326 | 14.5 | 22.5 | 0.00 | 0.15 | 0.15 | 21 | 1009.6 |
| 20260503235538 | 23 | 298 | 17.7 | 22.5 | 0.00 | 0.15 | 0.15 | 21 | 1009.6 |
| 20260503235035 | 23 | 311 | 11.3 | 16.1 | 0.00 | 0.15 | 0.15 | 22 | 1009.6 |
| 20260503234532 | 23 | 310 | 11.3 | 16.1 | 0.00 | 0.15 | 0.15 | 22 | 1009.8 |
| 20260503234026 | 23 | 297 | 9.7 | 11.3 | 0.00 | 0.15 | 0.15 | 21 | 1009.8 |
| 20260503233521 | 23 | 319 | 14.5 | 16.1 | 0.00 | 0.15 | 0.15 | 21 | 1009.7 |
| 20260503233018 | 23 | 330 | 16.1 | 17.7 | 0.00 | 0.15 | 0.15 | 22 | 1009.6 |
| 20260503232515 | 23 | 307 | 12.9 | 14.5 | 0.00 | 0.15 | 0.15 | 22 | 1009.8 |
| 20260503232012 | 23 | 268 | 17.7 | 17.7 | 0.00 | 0.15 | 0.15 | 22 | 1009.8 |
| 20260503231509 | 23 | 281 | 24.1 | 27.4 | 0.00 | 0.15 | 0.15 | 21 | 1009.7 |
| 20260503231006 | 23 | 303 | 8.0 | 12.9 | 0.00 | 0.15 | 0.15 | 23 | 1010.0 |
| 20260503230502 | 23 | 298 | 12.9 | 14.5 | 0.00 | 0.15 | 0.15 | 23 | 1010.2 |
| 20260503230000 | 23 | 281 | 19.3 | 25.7 | 0.00 | 0.15 | 0.15 | 22 | 1009.9 |
| 20260503225457 | 23 | 339 | 17.7 | 20.9 | 0.00 | 0.15 | 0.15 | 22 | 1010.1 |
| 20260503224952 | 23 | 329 | 6.4 | 9.7 | 0.00 | 0.15 | 0.15 | 22 | 1010.0 |
| 20260503224449 | 23 | 323 | 17.7 | 20.9 | 0.00 | 0.15 | 0.15 | 22 | 1010.1 |
| 20260503223947 | 23 | 306 | 11.3 | 14.5 | 0.00 | 0.15 | 0.15 | 22 | 1010.2 |
| 20260503223445 | 23 | 311 | 17.7 | 20.9 | 0.00 | 0.15 | 0.15 | 22 | 1010.1 |
| 20260503222940 | 23 | 287 | 20.9 | 25.7 | 0.00 | 0.15 | 0.15 | 21 | 1010.2 |
| 20260503222439 | 23 | 321 | 20.9 | 24.1 | 0.00 | 0.15 | 0.15 | 23 | 1010.1 |
| 20260503221936 | 23 | 293 | 9.7 | 12.9 | 0.00 | 0.15 | 0.15 | 22 | 1010.3 |
| 20260503221434 | 23 | 307 | 14.5 | 16.1 | 0.00 | 0.15 | 0.15 | 23 | 1010.6 |
| 20260503220931 | 23 | 306 | 14.5 | 14.5 | 0.00 | 0.15 | 0.15 | 22 | 1010.4 |
| 20260503220427 | 23 | 291 | 14.5 | 16.1 | 0.00 | 0.15 | 0.15 | 22 | 1010.8 |
| 20260503215924 | 23 | 314 | 25.7 | 29.0 | 0.00 | 0.15 | 0.15 | 22 | 1010.7 |
| 20260503215421 | 23 | 307 | 17.7 | 24.1 | 0.00 | 0.15 | 0.15 | 21 | 1010.7 |
| 20260503214919 | 22 | 302 | 9.7 | 11.3 | 0.00 | 0.15 | 0.15 | 22 | 1010.8 |
| 20260503214416 | 22 | 301 | 14.5 | 17.7 | 0.00 | 0.15 | 0.15 | 22 | 1011.0 |
| 20260503213914 | 23 | 273 | 24.1 | 25.7 | 0.00 | 0.15 | 0.15 | 22 | 1010.9 |
| 20260503213411 | 23 | 275 | 16.1 | 17.7 | 0.00 | 0.15 | 0.15 | 20 | 1011.0 |
| 20260503212908 | 23 | 278 | 11.3 | 12.9 | 0.00 | 0.15 | 0.15 | 22 | 1011.1 |
| 20260503212406 | 22 | 246 | 19.3 | 20.9 | 0.00 | 0.15 | 0.15 | 24 | 1011.2 |
| 20260503211902 | 22 | 262 | 17.7 | 20.9 | 0.00 | 0.15 | 0.15 | 22 | 1011.4 |
| 20260503211359 | 22 | 326 | 17.7 | 24.1 | 0.00 | 0.15 | 0.15 | 23 | 1011.4 |
| 20260503210854 | 22 | 305 | 27.4 | 29.0 | 0.00 | 0.15 | 0.15 | 22 | 1011.3 |
| 20260503210352 | 22 | 352 | 9.7 | 11.3 | 0.00 | 0.15 | 0.15 | 22 | 1011.5 |
| 20260503205847 | 22 | 318 | 19.3 | 22.5 | 0.00 | 0.15 | 0.15 | 23 | 1011.5 |
| 20260503205344 | 22 | 299 | 19.3 | 22.5 | 0.00 | 0.15 | 0.15 | 24 | 1011.7 |
| 20260503204840 | 22 | 294 | 17.7 | 22.5 | 0.00 | 0.15 | 0.15 | 24 | 1012.0 |
| 20260503204338 | 22 | 295 | 14.5 | 17.7 | 0.00 | 0.15 | 0.15 | 22 | 1011.9 |
| 20260503203835 | 22 | 285 | 24.1 | 25.7 | 0.00 | 0.15 | 0.15 | 22 | 1011.8 |
| 20260503203332 | 22 | 292 | 8.0 | 9.7 | 0.00 | 0.15 | 0.15 | 24 | 1012.1 |
| 20260503202829 | 23 | 278 | 16.1 | 22.5 | 0.00 | 0.15 | 0.15 | 24 | 1011.9 |
| 20260503202327 | 21 | 287 | 16.1 | 22.5 | 0.00 | 0.15 | 0.15 | 23 | 1011.9 |
| 20260503201825 | 22 | 289 | 29.0 | 30.6 | 0.00 | 0.15 | 0.15 | 23 | 1012.1 |
| 20260503201321 | 22 | 276 | 14.5 | 17.7 | 0.00 | 0.15 | 0.15 | 26 | 1012.1 |
| 20260503200819 | 22 | 315 | 16.1 | 20.9 | 0.00 | 0.15 | 0.15 | 25 | 1012.2 |
| 20260503200315 | 21 | 296 | 14.5 | 17.7 | 0.00 | 0.15 | 0.15 | 24 | 1012.3 |
| 20260503195813 | 22 | 279 | 14.5 | 16.1 | 0.00 | 0.15 | 0.15 | 24 | 1012.2 |
| 20260503195309 | 22 | 280 | 16.1 | 16.1 | 0.00 | 0.15 | 0.15 | 25 | 1012.3 |
| 20260503194806 | 22 | 305 | 16.1 | 17.7 | 0.00 | 0.15 | 0.15 | 25 | 1012.6 |
| 20260503194302 | 22 | 271 | 16.1 | 20.9 | 0.00 | 0.15 | 0.15 | 24 | 1012.2 |
| 20260503193758 | 22 | 323 | 14.5 | 17.7 | 0.00 | 0.15 | 0.15 | 25 | 1012.6 |
| 20260503193254 | 21 | 293 | 19.3 | 22.5 | 0.00 | 0.15 | 0.15 | 25 | 1012.8 |
| 20260503192750 | 21 | 323 | 14.5 | 17.7 | 0.00 | 0.15 | 0.15 | 28 | 1012.8 |
| 20260503192245 | 21 | 256 | 24.1 | 27.4 | 0.00 | 0.15 | 0.15 | 26 | 1012.8 |
| 20260503191743 | 21 | 259 | 27.4 | 30.6 | 0.00 | 0.15 | 0.15 | 27 | 1012.9 |
| 20260503191240 | 21 | 305 | 14.5 | 16.1 | 0.00 | 0.15 | 0.15 | 28 | 1012.9 |
| 20260503190736 | 21 | 244 | 27.4 | 29.0 | 0.00 | 0.15 | 0.15 | 26 | 1013.0 |
| 20260503190233 | 21 | 249 | 14.5 | 16.1 | 0.00 | 0.15 | 0.15 | 30 | 1013.4 |
| 20260503185731 | 21 | 323 | 8.0 | 12.9 | 0.00 | 0.15 | 0.15 | 30 | 1013.3 |
| 20260503185226 | 21 | 290 | 19.3 | 24.1 | 0.00 | 0.15 | 0.15 | 27 | 1013.1 |
| 20260503184721 | 21 | 295 | 16.1 | 17.7 | 0.00 | 0.15 | 0.15 | 27 | 1013.3 |
| 20260503184217 | 21 | 275 | 16.1 | 20.9 | 0.00 | 0.15 | 0.15 | 30 | 1013.5 |
| 20260503183714 | 20 | 276 | 11.3 | 12.9 | 0.00 | 0.15 | 0.15 | 29 | 1013.7 |
| 20260503183211 | 20 | 279 | 11.3 | 12.9 | 0.00 | 0.15 | 0.15 | 30 | 1013.7 |
| 20260503182709 | 21 | 281 | 11.3 | 14.5 | 0.00 | 0.15 | 0.15 | 28 | 1013.9 |
| 20260503182208 | 21 | 283 | 14.5 | 17.7 | 0.00 | 0.15 | 0.15 | 28 | 1013.9 |
| 20260503181703 | 20 | 295 | 20.9 | 33.8 | 0.00 | 0.15 | 0.15 | 29 | 1013.9 |
| 20260503181200 | 20 | 292 | 16.1 | 20.9 | 0.00 | 0.15 | 0.15 | 30 | 1014.1 |
| 20260503180657 | 20 | 301 | 16.1 | 17.7 | 0.00 | 0.15 | 0.15 | 29 | 1014.1 |
| 20260503180156 | 20 | 301 | 12.9 | 14.5 | 0.00 | 0.15 | 0.15 | 30 | 1014.1 |
| 20260503175652 | 20 | 315 | 17.7 | 22.5 | 0.00 | 0.15 | 0.15 | 30 | 1014.0 |
| 20260503175150 | 19 | 336 | 16.1 | 20.9 | 0.00 | 0.15 | 0.15 | 31 | 1014.2 |
| 20260503174646 | 20 | 312 | 16.1 | 17.7 | 0.00 | 0.15 | 0.15 | 30 | 1014.3 |
| 20260503174143 | 19 | 307 | 17.7 | 22.5 | 0.00 | 0.15 | 0.15 | 31 | 1014.2 |